User: anonymous
Location: Thompson
(55.7500°N, 97.8670°W)
Time: 16:21:50
(UTC-05:00)
Language:

Cosmos 1833 Rocket - Orbit

View from above orbital plane
View from above orbital plane
View from above satellite
View from above satellite

Ground track
Ground track

The orbit data is extracted from the following two-line orbital elements,

1 17590U 87027B   14244.77507995 -.00000136  00000-0 -44263-4 0  7601
2 17590 071.0033 136.4769 0003701 035.7880 324.3490 14.16646761419748
Epoch (UTC): 01 September 2014 18:36:06
Eccentricity: 0.0003701
inclination: 71.0033°
perigee height: 834 km
apogee height: 839 km
right ascension of ascending node: 136.4769°
argument of perigee: 35.7880°
revolutions per day: 14.16646761
mean anomaly at epoch: 324.3490°
orbit number at epoch: 41974

The dashed part of the orbit path shows where the satellite is in the earth's shadow,  

DLR